EW6230 Weather Reports


time (UTC)temp
F
wind
direction
speed
knots
gust
knots
rain 1hr
in
rain 24hr
in
rain mn
in
humidity
%
barometer
mb
20260831203004 69 314 0.0 0.9 0.00 0.00 0.00 61 1008.6
20260831201607 67 326 0.0 1.7 0.00 0.00 0.00 62 1008.8
20260831200137 69 72 0.0 0.9 0.00 0.00 0.00 61 1008.9
20260831194557 68 315 0.0 0.0 0.00 0.00 0.00 62 1009.2
20260831193045 67 56 0.0 0.9 0.00 0.00 0.00 62 1009.3
20260831191545 66 13 0.0 0.9 0.00 0.00 0.00 62 1009.5
20260831190040 66 333 0.0 0.9 0.00 0.00 0.00 62 1009.8
20260831184532 66 331 0.0 0.9 0.00 0.00 0.00 62 1009.9
20260831183028 66 332 0.0 0.9 0.00 0.00 0.00 62 1010.0
20260831181528 65 326 0.0 0.9 0.00 0.00 0.00 62 1010.1
20260831180019 64 67 0.0 0.9 0.00 0.00 0.00 57 1010.2
20260831174515 64 72 0.0 0.9 0.00 0.00 0.00 56 1010.3
20260831173010 63 70 0.0 0.9 0.00 0.00 0.00 44 1010.5
20260831171505 62 71 0.0 0.9 0.00 0.00 0.00 34 1010.5
20260831170001 62 75 0.0 0.9 0.00 0.00 0.00 36 1010.7
20260831164557 62 235 0.0 0.0 0.00 0.00 0.00 28 1010.7
20260831163051 62 234 0.0 0.9 0.00 0.00 0.00 36 1010.8
20260831161547 62 234 0.0 0.0 0.00 0.00 0.00 21 1010.9
20260831160043 61 234 0.0 0.0 0.00 0.00 0.00 2 1010.9
20260831154538 60 234 0.0 0.0 0.00 0.00 0.00 1 1011.0
20260831153034 57 237 0.0 0.0 0.00 0.00 0.00 1 1011.0
20260831151529 55 238 0.0 0.0 0.00 0.00 0.00 1 1011.1
20260831150025 54 238 0.0 0.0 0.00 0.00 0.00 1 1011.0
20260831144521 54 237 0.0 0.0 0.00 0.00 0.00 1 1011.1
20260831143018 53 237 0.0 0.0 0.00 0.00 0.00 1 1011.1
20260831141512 0 0.0 0.0 0.00 0.00 0.00 1011.1
20260831140021 0 0.0 0.0 0.00 0.00 0.00 1011.1
20260831134504 0 0.0 0.0 0.00 0.00 0.00 1011.0
20260831133059 0 0.0 0.0 0.00 0.00 0.00 1011.1
20260831131559 0 0.0 0.0 0.00 0.00 0.00 1011.2
20260831130053 0 0.0 0.0 0.00 0.00 0.00 1011.4
20260831124548 0 0.0 0.0 0.00 0.00 0.00 1011.5
20260831123042 0 0.0 0.0 0.00 0.00 0.00 1011.5
20260831121538 52 238 0.0 0.0 0.00 0.00 0.00 1 1011.6
20260831120034 53 238 0.0 0.0 0.00 0.00 0.00 1 1011.8
20260831114532 53 237 0.0 0.0 0.00 0.00 0.00 1 1011.9
20260831113024 52 237 0.0 0.0 0.00 0.00 0.00 1 1011.9
20260831111521 52 237 0.0 0.0 0.00 0.00 0.00 1 1012.1
20260831110015 52 238 0.0 0.0 0.00 0.00 0.00 1 1012.2
20260831104512 52 237 0.0 0.0 0.00 0.00 0.00 1 1012.3
20260831103005 52 238 0.0 0.0 0.00 0.00 0.00 1 1012.3
20260831101503 52 238 0.0 0.0 0.00 0.00 0.00 1 1012.3
20260831100104 52 237 0.0 0.0 0.00 0.00 0.00 1 1012.5
20260831094553 52 238 0.0 0.0 0.00 0.00 0.00 1 1012.7
20260831093053 52 237 0.0 0.0 0.00 0.00 0.00 1 1012.7
20260831091543 53 237 0.0 0.0 0.00 0.00 0.00 1 1012.8
20260831090044 53 237 0.0 0.0 0.00 0.00 0.00 1 1012.9
20260831084536 53 237 0.0 0.0 0.00 0.00 0.00 1 1013.2
20260831083031 53 238 0.0 0.0 0.00 0.00 0.00 1 1013.3
20260831081525 53 237 0.0 0.0 0.00 0.00 0.00 1 1013.4
20260831080021 53 237 0.0 0.0 0.00 0.00 0.00 1 1013.6
20260831074521 54 238 0.0 0.0 0.00 0.00 0.00 1 1013.6
20260831073012 54 237 0.0 0.0 0.00 0.00 0.00 1 1013.7
20260831071508 54 237 0.0 0.0 0.00 0.00 0.00 1 1013.8
20260831070005 54 237 0.0 0.0 0.00 0.00 0.00 1 1014.1
20260831064600 54 237 0.0 0.0 0.00 0.00 0.00 1 1014.2
20260831063054 55 237 0.0 0.0 0.00 0.00 0.00 1 1014.4
20260831061554 55 238 0.0 0.0 0.00 0.00 0.00 1 1014.3
20260831060050 55 237 0.0 0.0 0.00 0.00 0.00 1 1014.3
20260831054545 56 238 0.0 0.0 0.00 0.00 0.00 1 1014.3
20260831053039 56 238 0.0 0.0 0.00 0.00 0.00 1 1014.4
20260831051537 57 237 0.0 0.0 0.00 0.00 0.00 1 1014.4
20260831050027 57 237 0.0 0.0 0.00 0.00 0.00 1 1014.6
20260831044523 57 237 0.0 0.0 0.00 0.00 0.00 1 1014.8
20260831043018 58 238 0.0 0.0 0.00 0.00 0.00 1 1014.8
20260831041514 58 238 0.0 0.0 0.00 0.00 0.00 1 1014.9
20260831040010 59 237 0.0 0.0 0.00 0.00 0.00 1 1014.9
20260831034505 59 237 0.0 0.0 0.00 0.00 0.00 1 1014.8
20260831033002 59 237 0.0 0.0 0.00 0.00 0.00 2 1014.8
20260831031557 60 238 0.0 0.0 0.00 0.00 0.00 6 1014.8
20260831030053 60 238 0.0 0.0 0.00 0.00 0.00 8 1014.9
20260831024549 60 237 0.0 0.0 0.00 0.00 0.00 11 1014.9
20260831023045 60 238 0.0 0.0 0.00 0.00 0.00 17 1014.9
20260831021539 61 237 0.0 0.0 0.00 0.00 0.00 20 1014.9
20260831020038 61 238 0.0 0.0 0.00 0.00 0.00 24 1015.0
20260831014531 61 238 0.0 0.0 0.00 0.00 0.00 32 1015.2
20260831013026 61 237 0.0 0.0 0.00 0.00 0.00 35 1015.2
20260831011522 61 238 0.0 0.0 0.00 0.00 0.00 29 1015.3
20260831010017 61 238 0.0 0.9 0.00 0.00 0.00 34 1015.3
20260831004512 61 238 0.0 0.0 0.00 0.00 0.00 35 1015.3
20260831003006 62 237 0.0 0.0 0.00 0.00 0.00 42 1015.6
20260831001506 62 238 0.0 0.9 0.00 0.00 0.00 46 1015.8
20260831000111 63 279 0.0 0.0 0.00 0.00 0.00 52 1015.8
20260830234553 63 279 0.0 0.9 0.00 0.00 0.00 55 1015.9
20260830233049 63 73 0.0 0.9 0.00 0.00 0.00 59 1016.0
20260830231546 64 160 0.0 0.0 0.00 0.00 0.00 61 1016.1
20260830230040 64 160 0.0 0.9 0.00 0.00 0.00 61 1016.0
20260830224536 65 335 0.0 0.9 0.00 0.00 0.00 61 1016.2
20260830223030 65 335 0.0 0.9 0.00 0.00 0.00 63 1016.1
20260830221536 66 335 0.0 0.9 0.00 0.00 0.00 63 1016.1
20260830220022 66 329 0.0 0.9 0.00 0.00 0.00 63 1016.2
20260830214518 66 254 0.0 0.9 0.00 0.00 0.00 62 1016.3
20260830213013 65 254 0.0 0.9 0.00 0.00 0.00 61 1016.6
20260830211508 65 210 0.0 1.7 0.00 0.00 0.00 62 1016.6
20260830210007 66 50 0.0 0.9 0.00 0.00 0.00 63 1016.4
20260830204600 66 202 0.0 0.0 0.00 0.00 0.00 62 1016.4